LogoCoinalyze
    Ad-Free Version Anasayfa Piyasalar Fonlama Oranları
    Vadeli işlem verileri
    • Toplulaştırılmış veriler (Madeni Paralar)
    • Bireysel grafikler
    • Küresel grafikler
    Alarmlar
    TA
    Bitcoin Ethereum BNB Ripple Tron ZCash Dogecoin Monero UNUS SED LEO Chainlink Cardano Stellar Lumens Bitcoin Cash Litecoin Hedera Cronos Polkadot Ethereum Classic Algorand Quant Cosmos VeChain Dash Bitcoin SV BitTorrent Terra Decred Tezos Iota The Graph THETA MultiversX Decentraland NEO Chiliz Golem Basic Attention Token Horizen Qtum 0x DigiByte Beam RIF Token FTX Token Holo FUNToken aelf Zilliqa Ontology Nano Enjin Coin Ravencoin Verge Mask Network Siacoin Status WINk Waves IoTeX Power Ledger iExec RLC Steem Kyber Network Crystal Lisk Ark Ardor WOO Network IOST WAX Icon Storj Wanchain Loopring Bitcoin Diamond Augur AdEx Bitcoin Gold OmiseGO NEM MonaCoin BitShares Ren V Systems Komodo Nuls Mithril SOLVE EOS Maker Aion Nebulas HedgeTrade Bread Fetch.ai TomoChain Polygon Fantom Waltonchain GXChain Bytom Metaverse ETP MaidSafeCoin QASH
    Sırala:
    Daha
    • API
    • Mum Desenleri
    • Bağış
    • İletişim
    • Site Haritası
    • Gizlilik Politikası
    • Sorumluluk Reddi Beyanı
    • Theme:
    Türkçe
    • English
    • Français
    • Русский
    • Deutsch
    • Nederlands
    • Português (BR)
    • Español
    • 한국어
    • 简体中文
    • 日本語
     
    Giriş / Kaydol
    Markets/ Pepe/ PEPE ve TRY/ PEPETRY Binance
    İşlemler
    WL
    Sohbet
    İstatistikler
    Haberler
    ⦷
    AAA
    0.00016591 3990433.00000000 04:26:14
    0.00016595 46.00000000 04:23:28
    0.00016595 472990100.00000000 04:23:28
    0.00016595 102400000.00000000 04:23:27
    0.00016595 158677489.00000000 04:23:27
    0.00016594 88.00000000 04:23:24
    0.00016594 59865900.00000000 04:23:24
    0.00016594 101487046.00000000 04:23:20
    0.00016595 3373931.00000000 04:23:13
    0.00016596 77985232.00000000 04:23:13
    0.00016598 57670579.00000000 04:23:13
    0.00016595 129527.00000000 04:22:57
    0.00016597 90408.00000000 04:22:11
    0.00016591 90427.00000000 04:22:07
    0.00016589 5424408.00000000 04:22:06
    0.00016589 90441.00000000 04:22:00
    0.00016587 180936.00000000 04:22:00
    0.00016585 90457.00000000 04:22:00
    0.00016583 90490.00000000 04:22:00
    0.00016582 42749810.00000000 04:22:00
    0.00016581 90.00000000 04:22:00
    0.00016581 90400.00000000 04:22:00
    0.00016579 90490.00000000 04:22:00
    0.00016578 184605.00000000 04:22:00
    0.00016578 3715395.00000000 04:22:00
    0.00016577 184605.00000000 04:22:00
    0.00016581 3835000.00000000 04:21:52
    0.00016588 3834000.00000000 04:21:31
    0.00016597 19912870.00000000 04:21:24
    0.00016595 90411.00000000 04:21:24
    0.00016594 56089400.00000000 04:21:24
    0.00016593 184449.00000000 04:21:24
    0.00016592 52189400.00000000 04:21:24
    0.00016589 42840245.00000000 04:20:58
    0.00016587 90471.00000000 04:20:58
    0.00016584 66039.00000000 04:20:58
    0.00016584 3833961.00000000 04:20:58
    0.00016583 39.00000000 04:20:58
    0.00016583 184500.00000000 04:20:58
    0.00016581 184518.00000000 04:20:53
    0.00016584 5481179.00000000 04:20:53
    0.00016594 47583497.00000000 04:19:53
    0.00016595 26280829.00000000 04:19:29
    0.00016596 80191703.00000000 04:19:24
    0.00016594 12060543.00000000 04:16:55
    0.00016583 3900000.00000000 04:16:33
    0.00016585 61506.00000000 04:15:58
    0.00016584 52189400.00000000 04:15:55
    0.00016583 90482.00000000 04:15:55
    0.00016582 80043106.00000000 04:15:55
    0.00016581 52279893.00000000 04:15:55
    0.00016580 4084605.00000000 04:15:55
    0.00016579 90498.00000000 04:15:55
    0.00016584 69967700.00000000 04:15:50
    0.00016583 132322980.00000000 04:15:50
    0.00016581 42840289.00000000 04:15:50
    0.00016580 3900000.00000000 04:15:50
    0.00016579 52279896.00000000 04:15:50
    0.00016576 184605.00000000 04:15:50
    0.00016577 3900000.00000000 04:15:41
    0.00016578 184584.00000000 04:15:22
    0.00016597 4603262.00000000 04:15:21
    0.00016600 2000000.00000000 04:15:21
    0.00016604 6368213.00000000 04:15:21
    0.00016604 384755800.00000000 04:15:21
    0.00016604 777668800.00000000 04:15:21
    0.00016605 159388242.00000000 04:15:21
    0.00016605 847254900.00000000 04:15:21
    0.00016606 63475802.00000000 04:15:19
    0.00016609 52189400.00000000 04:15:18
    0.00016608 3900000.00000000 04:15:18
    0.00016607 3830000.00000000 04:15:18
    0.00016623 6529633.00000000 04:15:09
    0.00016623 3344300.00000000 04:15:09
    0.00016624 295897.00000000 04:15:02
    0.00016623 3828000.00000000 04:14:59
    0.00016623 184083.00000000 04:14:13
    0.00016626 184000.00000000 04:14:09
    0.00016623 3824000.00000000 04:13:59
    0.00016632 67394289.00000000 04:13:52
    0.00016632 5481179.00000000 04:13:52
    0.00016632 197687376.00000000 04:13:52
    0.00016632 197687376.00000000 04:13:51
    0.00016632 197687376.00000000 04:13:51
    0.00016632 102400000.00000000 04:13:51
    0.00016632 197687376.00000000 04:13:51
    0.00016632 197687376.00000000 04:13:51
    0.00016632 3823000.00000000 04:13:50
    0.00016639 461896468.00000000 04:13:37
    0.00016639 82695200.00000000 04:13:37
    0.00016639 67504600.00000000 04:13:37
    0.00016639 54587100.00000000 04:13:37
    0.00016639 199256800.00000000 04:13:37
    0.00016639 99629100.00000000 04:13:37
    0.00016639 5815100.00000000 04:13:37
    0.00016639 19297000.00000000 04:13:37
    0.00016639 30972600.00000000 04:13:37
    0.00016639 49304700.00000000 04:13:37
    0.00016639 49820000.00000000 04:13:37
    0.00016639 41917400.00000000 04:13:37
    Çıkış
    AAA
    Yardım
    🙂 🤣 😎 🤗 😛 😉 😜 🤑 🤔 😑 😴 😕 🙃 😲 😇 🙁 😢 😬 😟 😠 🕺 🏃 💪 ✌ 👌 👍 👎 👏 👋 🤝 🍺 🍻 🐋 🐟 🦈 🗽 🚄 ✈ 🛑 🚀 🏦 🌚 ⭐ 🌞 ⚡ 🏆 💰 💲 🔨 ❓ ❗ 💯 🔶 🏁
    ☺
    Giriş veya Kaydol ve sohbet
    24 Saat
    Değişim
    -0.57%
    Hacim
    558,922,862,419
    Yüksek
    0.00016787
    Düşük
    0.00016213
    7 Gün
    Değişim
    -10.46%
    Hacim
    5,421,637,667,867
    Yüksek
    0.00019297
    Düşük
    0.00016213
    30 Gün
    Değişim
    +20.56%
    Hacim
    37,684,597,279,898
    Yüksek
    0.00021642
    Düşük
    0.00012111
    DOGE, SHIB, PEPE, or Something Else: Which Meme Coin Can Make History in September? (3 AIs Weigh In)
    "DOGE remains the most likely to record the largest move in dollar terms and lead the entire sector," ChatGPT stated.
    cryptopotato.com
    Sept 3, 2026 00:41
    Pepe price rallies 25% as whale demand and futures interest surge
    Key takeaways Pepe has gained 25% this week, including a combined 22% advance over the previous two days. Seven whale transactions worth more than $1 million each occurred Thursday, the highest...
    coinjournal.net
    Aug 21, 2026 08:41
    PEPE Supply on Exchanges Just Took a Massive Hit – What’s Next?
    A drop in PEPE exchange balances has added to bullish expectations despite muted trader interest.
    cryptopotato.com
    Aug 6, 2026 20:02
    PEPE Exchange Outflows Hit Nearly 2-Year High as Whales Accumulate
    Pepe (PEPE) recorded its largest single-day exchange outflow since November 2024, with 4.54 trillion tokens leaving trading platforms, signaling that holders are moving supply away from immediate...
    beincrypto.com
    Aug 6, 2026 04:57
    Meme Coin Based on White House Shooter Conspiracy Rallies 320%
    $HENRY surged 300% after a 2023 Pepe tweet appeared to name the White House shooter, fueling a viral time-travel meme. The post Meme Coin Based on White House Shooter Conspiracy Rallies 320%...
    beincrypto.com
    Apr 27, 2026 16:11
    PEPE surges 4% as market sentiment improves, eyes Key resistance breakout
    Key takeaways Pepe extends gains on Wednesday, stretching its rally from the 50-day EMA. Derivatives data show heightened retail activity as risk-on sentiment returns to the market. Pepe (PEPE) is...
    coinjournal.net
    Apr 22, 2026 11:44
    Why The PEPE Price Could Stage A 55X Rally To Reach New $0.0001 ATH
    The PEPE price has now started to edge back into bullish conversations after the recent inflows into the crypto market. The last time PEPE’s weekly chart printed the kind of structure now...
    newsbtc.com
    Apr 21, 2026 15:30
    Pepe (PEPE) surges 9%, drawing interest from whales
    Key takeaways PEPE is up 9% in the last 24 hours, making it one of the best performers among the top 50 cryptocurrencies by market cap. The rally comes amid renewed interest from whales and retail...
    coinjournal.net
    Apr 16, 2026 07:40
    Murad Says SPX6900 (SPX) Is Primed for a Rally — Is He Right This Time?
    Crypto influencer Murad Mahmudov claims SPX6900 (SPX) is stabilizing at the same market cap level where Dogecoin (DOGE) and Pepe (PEPE) consolidated before their explosive rallies. The...
    beincrypto.com
    Apr 5, 2026 21:36
    The Shiba Inu Of This Cycle: Analyst Shares Why It Is Better To Buy PEPE Now
    In the bull market cycle of 2021-2022, the Shiba Inu meme coin made waves in a way that changed the face of meme coins forever. This came after Dogecoin’s initial 36,000% rally, and Shiba Inu...
    newsbtc.com
    Apr 4, 2026 07:30
    PEPE Explodes by 18% Amid Altcoin Rally, BTC Tapped $74K: Market Watch
    The frog-themed meme coin is today's biggest gainer, followed by TAO, DOT, and BONK.
    cryptopotato.com
    Mar 16, 2026 10:56
    Should PEPE traders brace for volatility as short squeeze potential builds?
    The memecoin market has seen its collective market capitalization drop by 48% over the past year, and 6.9% over the past month, according to CoinMarketCap. According to Glassnode, the memecoin...
    ambcrypto.com
    Mar 7, 2026 18:00
    Komutu sohbete yazmanız yeterlidir. Takma ad1'i gerçek takma adla değiştirin.
    • /ignore nick1 Sohbet kullanıcısını engelle
    • /unignore nick1 Sohbet kullanıcısının engelini kaldır.
    • /ignorelist Engellediğiniz sohbet kullanıcılarını gösterin